Orbital Elements at Epoch 2459200.5 (2020-Dec-17.0) TDB
Reference: JPL 27 (heliocentric ecliptic J2000)
Element | Value | Uncertainty (1-sigma) | Units |
e | .1644927513659021 | 5.1598e-08 | |
a | 2.422185608501761 | 1.0328e-08 | au |
q | 2.023753633440414 | 1.2218e-07 | au |
i | 7.933602067332169 | 4.9924e-06 | deg |
node | 354.5693416068356 | 2.167e-05 | deg |
peri | 9.878555723277776 | 2.3701e-05 | deg |
M | 235.7321651950331 | 1.0646e-05 | deg |
tp | 2459675.797780927797 (2022-Apr-06.29778093) | 4.2504e-05 | TDB |
period | 1376.92268801941 3.77 | 8.8062e-06 2.411e-08 | d yr |
n | .2614525878121962 | 1.6721e-09 | deg/d |
Q | 2.820617583563107 | 1.2026e-08 | au |
|
| | Orbit Determination Parameters
Additional Information
|